Location: *
(34.8620°S, 39.3380°E)
Time: 03:20:03
(UTC+00:00)

Cosmos 1300 - Pass Details

Date: 06 December 2021
Orbit: 509 x 511 km, 82.5° (Epoch: 22 January)

Event Time Altitude Azimuth Distance (km) Brightness Sun altitude
Exits shadow 22:44:09 11° 221° (SW) 1,679 5.5 -28.7°
Drops below altitude 10° 22:44:29 10° 217° (SW) 1,758 5.7 -28.7°
Sets 22:47:21 0° 194° (SSW) 2,654 7.0 -28.4°
